Change the Weather History Date:

Thursday, March 28, 2013

  Actual Average (KBLF) Record (KBLF)
Temperature  
Mean Temperature 34 °F 49 °F  
Max Temperature 41 °F 59 °F 81 °F (1989)
Min Temperature 28 °F 40 °F 14 °F (1982)
Degree Days  
Heating Degree Days 30 16  
Month to date heating degree days 569  
Since 1 July heating degree days 4062  
Cooling Degree Days 0 0  
Month to date cooling degree days 0  
Year to date cooling degree days 0  
Moisture  
Dew Point 21 °F    
Average Humidity 60    
Maximum Humidity 73    
Minimum Humidity 44    
Precipitation  
Precipitation 0.00 in 0.12 in 1.20 in (1996)
Month to date precipitation 3.18  
Year to date precipitation 8.84  
Snow  
Snow 0.00 in - - ()
Month to date snowfall  
Since 1 July snowfall  
Snow Depth -    
Sea Level Pressure  
Sea Level Pressure 30.22 in    
Wind  
Wind Speed 5 mph (WNW)    
Max Wind Speed 14 mph    
Max Gust Speed 21 mph    
Visibility 10 miles    
Events      
T = Trace of Precipitation, MM = Missing Value Source: NWS Daily Summary

Daily Weather History Graph

Daily Weather History Graph

Search for Another Location

Airport or City:

Trip Planner

Search our weather history database for the weather conditions in past years. The results will help you decide how hot, cold, wet, or windy it might be!

Date:

Astronomy

Mar. 28, 2013 Rise Set
Actual Time 7:18 AM EDT 7:46 PM EDT
Civil Twilight 6:52 AM EDT 8:12 PM EDT
Nautical Twilight 6:21 AM EDT 8:43 PM EDT
Astronomical Twilight 5:50 AM EDT 9:14 PM EDT
Moon 9:33 PM EDT (3/28) 7:48 AM EDT (3/28)
Length of Visible Light 13h 20m
Length of Day
12h 27m
Full, 98% of the Moon is Illuminated
Mar 28
Full
Apr 3
Last Quarter
Apr 10
New
Apr 18
First Quarter
Apr 25
Full

Hourly Weather History & Observations

Time (EDT) Temp. Windchill Dew Point Humidity Pressure Visibility Wind Dir Wind Speed Gust Speed Precip Events Conditions
12:15 AM 30.2 °F 24.3 °F 20.3 °F 67% 30.21 in 10.0 mi WNW 5.8 mph - N/A   Overcast
12:35 AM 29.8 °F 24.9 °F 20.1 °F 67% 30.21 in 10.0 mi WNW 4.6 mph - N/A   Mostly Cloudy
1:15 AM 29.8 °F 24.9 °F 20.3 °F 68% 30.20 in 10.0 mi WNW 4.6 mph - N/A   Overcast
1:35 AM 29.3 °F 24.3 °F 20.3 °F 69% 30.20 in 10.0 mi WNW 4.6 mph - N/A   Overcast
1:55 AM 29.3 °F 24.3 °F 20.3 °F 69% 30.20 in 10.0 mi WNW 4.6 mph - N/A   Overcast
2:15 AM 29.3 °F 25.6 °F 20.3 °F 69% 30.20 in 10.0 mi WNW 3.5 mph - N/A   Overcast
2:35 AM 29.3 °F 25.6 °F 20.3 °F 69% 30.20 in 10.0 mi WNW 3.5 mph - N/A   Overcast
2:55 AM 29.3 °F 24.3 °F 20.8 °F 71% 30.19 in 10.0 mi West 4.6 mph - N/A   Overcast
3:15 AM 29.3 °F 22.3 °F 20.5 °F 70% 30.19 in 10.0 mi WNW 6.9 mph - N/A   Overcast
3:35 AM 28.9 °F 22.8 °F 20.5 °F 71% 30.19 in 10.0 mi WNW 5.8 mph - N/A   Overcast
3:55 AM 28.6 °F 24.8 °F 20.3 °F 71% 30.19 in 10.0 mi WNW 3.5 mph - N/A   Mostly Cloudy
4:15 AM 28.9 °F 23.9 °F 20.5 °F 71% 30.19 in 10.0 mi WNW 4.6 mph - N/A   Overcast
4:35 AM 28.9 °F 25.2 °F 20.3 °F 70% 30.19 in 10.0 mi WNW 3.5 mph - N/A   Overcast
4:55 AM 28.9 °F 22.8 °F 20.5 °F 71% 30.19 in 10.0 mi WNW 5.8 mph - N/A   Overcast
5:15 AM 28.9 °F 25.2 °F 20.7 °F 71% 30.19 in 10.0 mi West 3.5 mph - N/A   Overcast
5:35 AM 28.9 °F 23.9 °F 20.7 °F 71% 30.19 in 10.0 mi WNW 4.6 mph - N/A   Overcast
5:55 AM 28.9 °F 23.9 °F 20.8 °F 72% 30.19 in 10.0 mi West 4.6 mph - N/A   Overcast
6:15 AM 28.9 °F 23.9 °F 20.8 °F 72% 30.20 in 10.0 mi West 4.6 mph - N/A   Overcast
6:35 AM 28.8 °F 25.0 °F 21.0 °F 73% 30.20 in 10.0 mi WNW 3.5 mph - N/A   Overcast
6:55 AM 28.9 °F 23.9 °F 20.8 °F 72% 30.20 in 10.0 mi West 4.6 mph - N/A   Overcast
7:15 AM 29.1 °F 24.1 °F 20.5 °F 70% 30.20 in 10.0 mi WNW 4.6 mph - N/A   Overcast
7:35 AM 29.1 °F 24.1 °F 20.3 °F 70% 30.21 in 10.0 mi West 4.6 mph - N/A   Overcast
7:55 AM 29.1 °F 23.0 °F 21.0 °F 72% 30.21 in 10.0 mi WNW 5.8 mph - N/A   Overcast
8:15 AM 29.1 °F - 21.2 °F 72% 30.22 in 10.0 mi Calm Calm - N/A   Overcast
8:35 AM 29.3 °F 24.3 °F 21.6 °F 73% 30.22 in 10.0 mi NW 4.6 mph - N/A   Overcast
8:55 AM 29.3 °F 25.6 °F 21.6 °F 73% 30.22 in 10.0 mi WNW 3.5 mph - N/A   Overcast
9:15 AM 29.7 °F 24.7 °F 21.9 °F 73% 30.24 in 10.0 mi NW 4.6 mph - N/A   Overcast
9:35 AM 30.0 °F 25.2 °F 22.3 °F 73% 30.24 in 10.0 mi NNW 4.6 mph - N/A   Overcast
10:15 AM 30.9 °F 25.2 °F 21.2 °F 67% 30.24 in 10.0 mi NW 5.8 mph - N/A   Overcast
10:35 AM 30.9 °F 21.2 °F 20.5 °F 65% 30.25 in 10.0 mi NNW 12.7 mph 16.1 mph N/A   Overcast
10:55 AM 31.5 °F 24.2 °F 20.3 °F 63% 30.25 in 10.0 mi NW 8.1 mph - N/A   Overcast
11:15 AM 31.6 °F 26.0 °F 20.3 °F 63% 30.25 in 10.0 mi NW 5.8 mph - N/A   Overcast
11:35 AM 32.0 °F 24.2 °F 19.6 °F 60% 30.25 in 10.0 mi NW 9.2 mph 16.1 mph N/A   Overcast
11:55 AM 32.4 °F 26.0 °F 19.9 °F 60% 30.25 in 10.0 mi NW 6.9 mph - N/A   Overcast
12:15 PM 32.5 °F 22.7 °F 19.9 °F 60% 30.25 in 10.0 mi NW 13.8 mph 17.3 mph N/A   Overcast
12:35 PM 34.0 °F 28.0 °F 21.0 °F 59% 30.25 in 10.0 mi NW 6.9 mph 16.1 mph N/A   Overcast
12:55 PM 34.3 °F 27.7 °F 21.4 °F 59% 30.25 in 10.0 mi NW 8.1 mph 18.4 mph N/A   Mostly Cloudy
1:15 PM 35.2 °F 28.8 °F 22.5 °F 60% 30.24 in 10.0 mi WSW 8.1 mph - N/A   Overcast
1:35 PM 35.6 °F 28.6 °F 22.3 °F 58% 30.24 in 10.0 mi WNW 9.2 mph 17.3 mph N/A   Mostly Cloudy
1:55 PM 36.5 °F 30.3 °F 22.6 °F 57% 30.24 in 10.0 mi NW 8.1 mph - N/A   Mostly Cloudy
2:15 PM 37.0 °F 31.6 °F 22.5 °F 56% 30.24 in 10.0 mi NW 6.9 mph - N/A   Scattered Clouds
2:35 PM 37.8 °F 30.2 °F 22.1 °F 53% 30.23 in 10.0 mi NW 11.5 mph 20.7 mph N/A   Scattered Clouds
2:55 PM 38.5 °F 34.1 °F 22.8 °F 53% 30.22 in 10.0 mi NW 5.8 mph - N/A   Mostly Cloudy
3:15 PM 39.2 °F 34.2 °F 24.1 °F 55% 30.22 in 10.0 mi West 6.9 mph - N/A   Mostly Cloudy
3:35 PM 39.4 °F 35.2 °F 23.4 °F 53% 30.22 in 10.0 mi NW 5.8 mph - N/A   Overcast
3:55 PM 40.1 °F 33.2 °F 22.6 °F 50% 30.21 in 10.0 mi NNW 11.5 mph 19.6 mph N/A   Mostly Cloudy
4:15 PM 39.7 °F 34.3 °F 21.9 °F 49% 30.21 in 10.0 mi NNW 8.1 mph - N/A   Scattered Clouds
4:35 PM 41.2 °F 36.0 °F 22.8 °F 48% 30.21 in 10.0 mi WNW 8.1 mph 17.3 mph N/A   Scattered Clouds
4:55 PM 40.8 °F 37.8 °F 22.8 °F 49% 30.21 in 10.0 mi WNW 4.6 mph - N/A   Mostly Cloudy
5:15 PM 40.8 °F 36.9 °F 22.5 °F 48% 30.21 in 10.0 mi NNW 5.8 mph - N/A   Mostly Cloudy
5:35 PM 41.4 °F 35.2 °F 22.1 °F 46% 30.21 in 10.0 mi NNW 10.4 mph - N/A   Scattered Clouds
6:15 PM 41.2 °F 37.3 °F 21.7 °F 46% 30.21 in 10.0 mi NNW 5.8 mph - N/A   Scattered Clouds
6:35 PM 41.2 °F 36.6 °F 21.2 °F 45% 30.21 in 10.0 mi WNW 6.9 mph - N/A   Mostly Cloudy
6:55 PM 41.0 °F 36.4 °F 20.7 °F 44% 30.21 in 10.0 mi NW 6.9 mph - N/A   Overcast
7:15 PM 40.5 °F 38.4 °F 20.8 °F 46% 30.22 in 10.0 mi NW 3.5 mph - N/A   Overcast
7:35 PM 39.6 °F 33.5 °F 20.3 °F 46% 30.22 in 10.0 mi NNW 9.2 mph - N/A   Scattered Clouds
7:55 PM 38.7 °F 34.3 °F 20.3 °F 48% 30.22 in 10.0 mi NNW 5.8 mph - N/A   Clear
8:15 PM 38.5 °F 36.1 °F 19.9 °F 47% 30.22 in 10.0 mi NW 3.5 mph - N/A   Clear
8:35 PM 38.3 °F 35.9 °F 19.9 °F 48% 30.24 in 10.0 mi NW 3.5 mph - N/A   Clear
8:55 PM 37.6 °F 35.1 °F 19.9 °F 49% 30.24 in 10.0 mi NW 3.5 mph - N/A   Clear
9:15 PM 37.4 °F 34.9 °F 19.8 °F 49% 30.24 in 10.0 mi WNW 3.5 mph - N/A   Clear
9:35 PM 37.0 °F 33.3 °F 19.8 °F 50% 30.25 in 10.0 mi West 4.6 mph - N/A   Clear
9:55 PM 36.7 °F 34.1 °F 19.6 °F 50% 30.25 in 10.0 mi WNW 3.5 mph - N/A   Clear
10:15 PM 36.1 °F 33.5 °F 19.8 °F 51% 30.26 in 10.0 mi WNW 3.5 mph - N/A   Clear
10:35 PM 35.8 °F 33.0 °F 19.9 °F 53% 30.26 in 10.0 mi West 3.5 mph - N/A   Clear
10:55 PM 35.4 °F 32.6 °F 19.9 °F 53% 30.26 in 10.0 mi WNW 3.5 mph - N/A   Clear
11:15 PM 35.1 °F 31.0 °F 19.9 °F 54% 30.26 in 10.0 mi West 4.6 mph - N/A   Clear
11:35 PM 34.9 °F 32.0 °F 19.8 °F 54% 30.26 in 10.0 mi West 3.5 mph - N/A   Clear
11:55 PM 35.4 °F 32.6 °F 19.6 °F 53% 30.26 in 10.0 mi West 3.5 mph - N/A   Clear